CAPE
0 4 1 3 0 0 0 0 0 25 36 0 4 20 1 0 0 0 786 868 265 27 388 644 1264 1278 1172 1385 1484 1459 1458 1359 1365 1337 1359 1456 1570 1562 1735 1393 1287 1405 1671 1558 1831 1666 1562 1432 1454 1585 1557 1341 1163 1081 1039 1138 1314 1848 2138 2387 3270 3312 3506 3348 2885 2834 2264 1908 1566 1639 2106 2245 2117 1494 1282 912 736 834 932 1205 1172 1071 955 978 721 1370 1550
0 0 4 0 0 0 0 0 0 0 2 57 134 154 46 141 108 67 21 602 461 1177 1234 927 846 1058 1436 1709 1625 1602 1550 1244 1438 1321 1290 1206 1312 1412 1479 1572 1365 1493 1438 1277 1765 1460 1315 1432 1488 1574 1542 1555 1746 1579 1587 1729 1870 1893 1800 1835 1735 2050 2332 2534 3012 3314 3320 3281 2928 2757 2202 2377 2938 2866 2310 1965 1360 1148 1156 1191 1220 1097 1044 1019 790 941 1302
44 19 0 0 0 0 0 0 0 0 0 10 156 59 336 583 245 114 24 4 788 1068 1443 1181 1202 1316 1634 1510 1329 1364 1291 1308 1182 1268 1386 1331 1188 1195 1214 1250 1275 1357 1655 1989 2160 2262 2128 1737 1515 1563 1467 1401 1464 1669 1800 2002 2179 2142 1941 1984 1765 1764 1653 1907 2361 2598 2429 2492 2551 2450 2711 3434 3614 3568 2814 2489 2135 1937 1495 1321 1377 1682 1803 1579 1370 1042 583
4 4 2 1 3 0 1 0 0 0 0 4 232 553 376 266 327 8 0 32 692 784 1334 1251 1324 1095 1504 1515 1521 1462 1470 1262 1244 1101 1134 1128 1093 1071 1031 1059 1105 1109 1125 1202 1121 1060 1299 1611 1817 1799 1667 1624 1615 1601 1561 1605 1878 2038 1984 1757 1720 1650 1566 1682 1729 1536 1710 1631 1621 1587 1741 1816 2118 2506 3023 3402 2854 2660 2170 1714 1726 1094 1066 1051 1512 977 949
0 2 0 12 1 1 0 0 0 4 153 79 60 489 627 741 482 490 423 36 700 762 1128 1100 1273 1255 1449 1378 1222 1280 1376 1307 1040 998 982 1038 1096 1039 1050 1037 1054 1083 1038 984 959 831 923 1068 1148 1240 1275 1248 1240 1274 1478 1626 1708 1666 1716 1754 1406 1389 1448 1455 1544 1656 1708 1613 1492 1328 1275 1316 1343 1378 1524 2261 2921 2356 2263 2230 1978 2019 1845 1294 1235 920 685
67 0 1 22 19 2 22 411 178 178 224 189 57 82 134 352 380 402 513 757 1246 1117 1038 787 1150 1134 1637 1397 1256 1242 1246 1313 1174 927 1004 1036 982 892 839 897 929 910 824 793 762 698 743 794 836 950 998 998 1008 1110 1133 1133 1206 1508 1430 1166 1150 1173 1557 1644 1806 1321 1271 1175 1336 1528 1604 1676 1684 1842 1671 1731 2081 2400 2361 2135 1354 1055 1128 1374 1371 1782 1103
4 29 40 79 96 136 414 244 260 203 22 36 42 132 216 288 331 266 439 804 1152 1407 1409 1082 1120 973 1030 1044 1021 980 1054 952 844 882 798 960 925 849 734 769 665 757 646 691 685 729 720 705 661 638 679 808 891 836 982 953 912 996 1002 1023 973 893 1045 1263 1339 1547 826 826 857 972 1034 864 996 1116 1050 1889 2530 2472 2828 1720 1632 1187 816 1257 994 1488 1355
19 13 126 27 103 182 76 66 6 0 0 10 2 30 304 281 250 335 456 866 1168 1301 1383 1242 1226 975 936 852 759 945 992 1010 957 774 692 775 864 821 667 666 478 644 781 730 745 754 674 598 567 591 561 530 565 595 630 704 714 766 755 837 903 802 810 839 828 794 714 765 947 887 799 840 843 975 1178 2351 2960 2927 2016 1640 1494 1805 1619 1188 836 835 1246
2 2 1 99 215 49 58 94 80 23 226 167 181 328 354 428 462 646 677 688 1152 1314 1226 1139 862 910 755 858 657 696 893 1023 885 782 717 636 690 664 551 507 399 433 592 688 780 769 658 664 598 493 544 596 579 542 567 592 637 672 635 634 618 625 515 636 540 470 517 578 577 617 786 867 916 1001 1142 2079 2121 2146 1597 1040 1019 1010 1324 1524 953 644 755
137 62 13 97 173 91 329 189 96 57 19 26 99 75 291 159 334 233 686 564 1034 1319 1278 1093 855 836 814 862 582 579 778 997 1008 756 567 572 518 440 578 666 719 456 399 631 582 588 630 588 551 519 542 553 474 441 423 445 491 556 621 635 596 582 538 525 490 455 406 452 455 462 402 361 477 581 743 732 898 1494 1410 967 1013 944 1071 1154 854 716 504
273 166 3 52 8 36 57 247 51 34 45 78 137 12 207 0 446 484 486 1030 1001 1143 727 727 725 827 786 810 528 580 761 826 742 670 616 487 415 347 328 359 416 446 573 440 369 381 388 481 431 539 561 527 446 369 311 309 386 412 385 560 575 500 466 455 494 482 541 590 532 484 457 454 406 420 422 437 516 1181 1568 1252 1208 1348 1092 954 1203 1142 991
0 140 193 75 465 836 502 215 122 34 65 16 125 122 101 1 31 241 889 1034 895 1178 1104 1066 985 864 1028 512 415 510 591 644 592 577 484 383 345 364 281 54 167 390 478 476 404 342 319 286 328 363 399 450 383 286 330 350 326 329 330 390 438 482 440 381 418 442 467 530 544 500 392 346 307 289 300 338 347 546 283 305 475 619 708 901 1174 886 923
0 0 9 292 403 351 329 265 98 82 39 80 91 81 85 143 181 89 450 1092 853 993 1039 831 907 683 504 390 283 128 0 355 400 461 419 334 198 273 122 175 93 257 255 350 348 311 206 0 118 280 337 322 358 296 282 292 311 300 319 298 276 475 387 326 307 279 296 306 352 313 275 275 255 178 275 388 366 196 215 205 290 438 492 705 700 887 910
1 18 5 224 198 225 222 270 189 140 97 205 34 190 147 210 207 275 757 952 1135 893 1296 679 519 466 242 130 201 159 4 0 0 50 155 287 256 212 191 212 192 0 219 258 0 92 280 0 199 200 17 0 214 298 287 311 287 298 296 257 259 316 346 279 215 182 217 256 258 304 296 260 250 120 206 212 362 204 200 206 186 200 440 511 577 592 429
5 0 0 61 62 501 160 278 348 242 384 189 145 263 280 380 355 572 592 902 1133 957 890 452 336 466 224 182 24 1 4 5 0 0 23 85 107 0 234 0 0 173 262 232 206 0 0 0 143 246 255 243 61 0 87 199 33 85 241 238 257 277 305 254 252 235 182 163 188 234 264 258 26 64 217 253 272 342 281 260 247 251 292 319 249 307 454
216 205 119 129 374 363 242 375 489 268 295 312 362 444 303 271 284 216 814 586 857 845 467 385 304 389 192 69 27 42 20 0 0 0 0 1 0 0 0 0 2 2 0 0 0 0 0 0 0 0 242 262 212 0 0 158 39 0 23 0 200 207 250 228 225 232 232 189 145 153 165 158 10 8 51 106 128 215 242 221 208 153 167 216 171 172 251
81 228 436 217 134 350 275 405 358 384 353 336 376 322 350 194 475 751 646 626 797 480 442 435 428 359 349 203 108 56 16 3 0 0 0 0 0 0 0 0 0 0 14 18 0 0 0 0 0 0 0 0 0 140 101 0 0 0 153 65 10 161 167 109 206 223 196 195 182 160 154 113 4 5 7 11 8 13 30 22 60 78 111 142 204 207 194
131 212 25 31 380 195 394 273 413 447 364 330 316 390 410 407 738 935 715 748 613 588 915 411 469 276 236 204 100 99 7 3 1 0 0 0 0 0 0 0 0 0 0 0 0 0 0 0 0 0 0 0 0 0 48 0 1 0 0 54 31 152 134 0 0 0 116 202 193 167 164 132 0 1 3 4 8 8 11 12 44 24 29 22 62 107 131
45 348 257 413 358 336 300 402 419 597 482 435 384 514 487 512 631 757 596 762 1075 583 628 629 577 327 202 176 183 31 31 4 5 0 0 0 0 0 0 0 0 0 0 0 0 0 0 0 1 2 0 0 1 1 1 78 0 0 2 0 48 90 95 122 105 140 160 122 113 101 118 108 96 87 0 2 4 6 6 5 4 3 7 4 3 10 54
121 760 702 530 236 342 288 491 741 650 661 512 450 529 583 657 682 476 683 808 770 788 859 818 607 433 316 291 316 168 91 56 6 1 0 0 0 0 0 0 0 0 0 0 0 0 0 0 0 0 0 1 0 0 0 0 0 0 0 0 0 0 28 3 70 34 63 77 92 89 77 94 51 0 0 0 0 0 0 0 0 0 0 5 0 5 3
454 530 451 481 465 528 808 544 538 576 639 526 431 467 492 615 625 644 642 567 632 750 891 598 489 489 295 306 389 336 217 120 64 12 0 0 0 2 0 0 0 0 0 0 0 0 0 0 0 0 0 1 2 0 0 0 0 0 1 0 0 0 0 0 0 0 0 64 81 77 65 56 0 0 0 0 0 0 0 0 0 0 0 0 0 0 3
36 428 416 715 569 907 754 724 706 598 613 642 588 477 463 508 692 697 828 774 731 898 812 792 609 807 621 310 262 385 392 330 155 72 12 0 5 1 3 2 1 4 3 1 0 0 0 0 0 0 0 0 0 2 1 0 0 0 0 0 0 0 0 0 0 0 0 0 0 0 0 0 0 0 0 0 0 0 0 0 0 0 0 0 0 0 0
448 481 707 504 424 374 582 690 617 460 515 618 650 605 485 422 401 586 755 626 692 705 837 812 638 650 400 388 183 308 307 477 386 224 233 168 22 1 0 3 4 3 5 5 0 0 0 0 0 0 0 0 0 0 0 1 3 2 0 1 0 0 0 0 0 0 0 0 0 0 0 0 0 0 0 0 0 0 0 0 0 0 0 0 0 0 0
573 355 655 475 275 577 786 831 640 757 458 708 673 592 554 528 464 331 358 459 610 627 620 750 591 796 849 835 305 353 237 225 221 116 138 39 24 7 13 28 0 1 2 0 0 1 0 0 0 0 0 0 0 0 0 0 0 0 4 4 1 0 0 0 0 0 0 0 0 0 0 0 0 0 0 0 0 0 0 0 0 0 0 0 0 0 0
743 801 556 435 532 437 643 558 675 589 569 459 751 690 473 467 427 433 415 321 313 326 394 683 852 897 905 885 690 559 230 228 298 146 16 0 3 3 1 13 4 0 0 0 0 0 1 0 0 0 0 0 0 0 0 0 0 0 0 0 0 0 0 0 0 0 0 0 0 0 0 0 0 0 0 0 3 0 0 0 0 0 0 0 0 0 0
314 484 410 388 272 291 326 184 266 396 419 342 382 806 728 295 75 344 485 392 470 289 310 319 742 823 835 875 779 642 624 657 444 215 108 0 0 0 0 0 0 1 0 0 0 0 0 0 0 0 0 0 0 0 0 0 0 0 0 0 0 0 0 0 0 0 0 0 0 0 0 0 0 0 0 0 0 0 3 0 0 0 0 0 0 0 0
310 386 346 324 174 172 296 243 187 431 336 177 230 234 255 366 556 359 386 490 506 385 410 301 278 749 529 562 770 725 753 742 644 350 266 150 35 4 0 0 0 3 6 1 0 0 0 0 0 0 0 0 0 0 0 0 0 0 0 0 0 0 0 0 0 0 0 0 0 1 1 0 0 0 0 0 0 0 0 0 0 1 6 0 0 0 0
420 389 285 266 204 168 401 502 365 328 286 114 183 143 90 59 90 129 150 382 772 605 558 508 559 650 582 717 562 809 684 582 638 575 356 219 123 56 5 0 3 12 17 13 2 0 0 0 0 0 0 0 0 0 0 0 0 0 0 0 0 0 0 0 0 0 0 0 0 0 0 0 0 0 0 0 0 0 0 0 0 0 0 9 5 0 0
412 439 372 303 352 410 482 438 303 237 266 204 68 43 29 59 34 19 13 43 117 158 551 810 474 410 365 688 655 757 851 811 717 681 598 506 364 174 51 19 32 38 37 26 5 0 0 0 0 0 0 0 0 0 0 0 0 0 0 0 0 0 0 0 0 0 0 0 0 0 0 0 0 0 0 0 0 0 0 2 0 0 0 0 0 16 2
404 403 371 368 433 421 376 306 292 230 99 156 35 12 26 0 1 7 5 0 20 26 15 111 271 727 626 464 602 636 789 845 747 774 794 728 537 344 277 124 75 68 35 8 16 8 0 0 0 0 0 0 0 0 0 0 0 0 0 0 0 0 0 0 0 0 0 0 0 0 0 0 0 0 0 0 0 0 0 0 0 0 0 0 0 0 0
386 408 404 446 419 320 200 173 166 151 79 62 25 0 0 0 0 0 0 0 3 0 14 34 41 45 204 663 745 508 639 765 818 823 793 735 624 495 393 272 166 228 61 38 102 69 12 0 0 0 0 2 0 0 0 0 0 0 0 0 0 0 0 0 0 0 0 0 0 0 0 0 0 0 0 0 0 0 0 0 0 0 0 0 0 0 0
232 285 356 334 324 249 176 120 90 59 37 29 32 17 3 0 0 0 0 0 0 0 0 0 0 0 2 47 423 715 770 745 750 753 730 725 799 638 443 394 306 411 305 214 197 70 34 3 0 0 1 3 0 0 0 0 0 0 0 0 0 0 0 0 0 0 0 0 0 0 0 0 0 0 0 0 0 0 0 0 0 0 0 0 0 0 0
140 174 198 171 150 179 115 72 64 43 33 24 21 4 0 0 0 0 0 0 0 0 2 3 0 0 0 15 44 65 438 659 749 753 765 716 750 862 630 468 424 505 404 318 267 144 54 24 1 0 0 0 0 0 0 1 0 0 0 0 0 0 0 0 0 0 0 0 0 0 0 0 0 0 0 0 0 0 0 0 0 0 0 0 0 0 0
86 37 43 39 74 77 71 48 45 53 36 21 11 16 37 29 30 31 21 42 12 5 4 0 3 11 10 11 48 53 50 98 384 565 669 723 721 840 574 391 607 513 246 299 336 154 57 73 5 0 0 0 0 0 0 0 0 0 0 0 0 0 0 0 0 0 0 0 0 0 0 0 0 0 0 0 0 0 0 0 0 0 0 0 1 0 0
266 269 125 171 244 214 140 114 71 38 55 92 96 88 130 153 107 52 18 14 16 7 6 0 2 6 5 20 46 77 76 74 123 251 494 689 831 820 834 775 683 578 418 307 350 170 85 46 14 0 0 0 2 0 0 0 0 0 0 0 0 0 0 0 0 0 0 0 0 0 0 0 0 0 0 0 0 0 0 0 0 0 0 0 0 2 2
538 582 521 530 519 349 230 192 137 93 104 88 121 145 135 148 59 51 23 13 8 0 0 5 22 25 26 35 53 59 105 217 211 247 310 477 725 996 904 688 657 611 243 132 277 225 235 102 4 0 0 0 2 2 0 1 0 0 0 0 0 0 0 0 0 0 0 0 0 0 0 0 0 0 0 0 0 0 0 0 0 0 0 0 1 3 3
470 508 529 459 452 588 511 391 274 191 179 140 114 57 45 42 22 24 13 12 14 12 7 1 2 13 32 48 94 129 123 108 269 393 441 467 627 744 821 818 686 464 124 270 525 311 191 96 1 0 0 1 1 6 5 0 1 0 0 0 0 0 0 0 0 0 0 0 0 0 0 0 0 0 0 0 0 0 0 0 0 0 1 1 3 2 0
255 327 259 185 144 124 108 87 24 12 6 11 12 1 1 2 4 2 9 15 19 30 22 13 16 45 68 83 123 155 176 176 228 401 480 589 732 780 824 729 664 478 287 490 444 229 140 25 0 0 0 2 4 4 0 0 0 0 0 0 0 0 0 0 0 0 0 0 0 0 0 0 0 0 0 0 0 0 1 2 3 2 0 1 0 0 0
112 63 30 2 7 14 16 8 0 0 0 0 0 0 0 0 0 0 0 0 3 12 28 45 48 72 121 200 340 388 394 438 432 449 562 639 766 808 815 737 612 526 561 282 122 129 3 0 0 9 10 1 4 6 0 0 0 0 0 0 0 0 0 0 0 0 0 0 0 0 0 0 0 0 0 0 0 1 4 3 2 1 0 0 0 0 2
14 2 0 0 0 1 1 0 0 0 0 0 0 0 0 4 7 6 8 12 24 34 54 62 85 99 137 216 311 384 450 448 508 497 435 555 740 781 770 752 675 462 299 244 100 0 0 0 1 0 1 2 2 1 2 0 0 0 0 0 0 0 0 0 0 0 0 0 0 0 0 0 0 0 0 0 0 1 1 0 1 1 2 0 1 2 4
0 1 2 0 0 0 0 0 0 0 1 1 1 1 5 6 8 11 9 17 49 57 86 130 170 116 176 394 500 545 554 526 482 524 485 446 517 693 569 593 424 224 142 30 32 30 109 77 9 4 6 3 5 4 0 0 0 0 0 0 0 0 0 0 0 0 0 0 0 0 0 0 0 0 0 0 0 0 0 0 0 2 0 2 2 3 4
1 2 0 0 0 1 0 0 0 0 0 0 4 7 9 10 11 15 54 63 87 82 116 98 87 190 208 92 90 86 391 425 562 620 692 514 376 595 400 214 202 158 64 34 11 0 1 1 1 1 6 1 5 0 0 1 0 0 0 0 0 0 0 0 0 0 0 0 0 0 0 0 0 0 0 0 0 0 0 0 2 2 2 2 1 4 1
0 0 0 0 0 0 0 0 2 4 6 6 8 10 9 9 10 14 26 64 70 67 74 191 311 207 265 92 32 11 243 537 596 617 683 602 616 438 311 176 145 148 117 82 47 1 86 4 13 5 0 4 3 2 1 0 0 0 0 0 0 0 0 0 0 0 0 0 0 0 0 0 0 0 0 0 0 0 1 2 1 2 0 2 0 2 3
0 0 0 1 1 0 1 4 5 6 11 8 11 12 8 13 16 21 42 46 60 48 165 401 326 148 65 51 157 39 169 512 499 189 180 275 173 24 7 11 136 119 109 50 96 86 70 63 48 20 26 32 20 4 3 0 0 0 0 0 0 0 0 0 0 0 0 0 0 0 0 1 0 0 2 0 0 0 2 2 2 1 0 2 3 0 2
1 1 0 0 0 4 4 5 8 12 9 9 10 10 10 17 28 28 38 30 44 61 281 185 166 59 48 76 17 49 116 318 291 240 145 48 33 38 52 22 15 33 82 77 78 53 30 32 36 46 36 30 7 0 3 0 0 0 1 1 0 0 0 0 0 0 0 0 1 1 1 1 0 2 1 1 1 2 2 1 0 3 2 2 2 2 2
0 0 0 0 2 6 5 8 11 14 14 14 16 10 14 16 17 32 38 20 47 135 294 329 277 325 291 106 44 38 19 6 12 50 9 6 32 60 74 57 39 47 37 1 4 25 12 6 6 6 11 10 3 2 5 8 5 3 2 2 0 0 0 2 1 1 2 2 2 1 1 2 1 1 1 2 3 1 0 1 1 3 0 0 0 0 0
0 0 1 6 7 9 10 11 13 12 16 18 16 6 21 20 16 7 16 14 15 49 39 112 156 166 213 238 109 5 4 6 8 5 10 13 17 25 34 55 36 25 32 20 2 2 5 12 16 14 15 13 9 11 4 1 0 1 2 0 1 0 1 3 4 1 1 2 1 2 3 0 1 2 1 1 0 0 0 0 0 2 0 3 2 2 0
0 0 0 7 8 9 11 16 15 14 13 2 20 21 18 23 14 11 3 11 17 47 2 1 100 192 150 62 4 6 2 2 2 4 5 0 0 17 23 19 12 4 6 4 1 0 0 0 0 0 0 2 6 2 1 2 1 4 3 4 1 3 4 2 0 2 2 2 3 0 0 0 3 0 0 0 3 3 0 0 0 2 0 0 0 0 0
0 1 2 3 8 12 13 14 14 19 13 13 17 16 12 8 9 9 8 2 6 2 2 3 2 3 8 3 2 3 6 6 8 13 22 24 12 12 18 8 0 0 26 1 0 4 1 0 0 0 0 0 4 4 2 3 2 3 4 0 3 0 1 0 1 2 2 1 3 1 4 1 0 0 2 0 4 1 3 2 0 0 0 0 1 2 0
0 0 2 6 6 8 7 10 3 4 5 14 22 12 7 5 12 9 7 2 1 2 1 0 1 2 2 5 6 87 121 34 10 12 8 0 8 8 1 1 2 2 3 23 10 8 0 0 0 0 0 1 6 4 2 6 1 4 1 1 1 2 0 0 2 1 0 3 0 3 0 3 0 1 0 3 0 2 0 0 0 0 0 0 3 3 0
4 3 5 3 4 6 9 7 3 1 0 0 2 6 8 9 10 3 1 0 2 8 2 3 6 6 8 6 12 6 5 8 15 11 7 5 16 13 5 0 0 11 18 14 8 2 1 0 0 0 0 1 4 4 2 0 1 0 2 5 2 0 1 0 2 2 1 3 4 2 1 3 0 3 1 3 0 3 3 0 2 0 0 1 1 2 1
0 1 0 6 5 6 2 8 7 4 2 1 3 1 0 2 4 1 1 0 6 10 9 11 10 10 6 2 3 0 2 3 4 9 2 1 7 14 7 1 5 11 9 2 1 2 2 5 3 0 2 4 1 0 0 0 1 5 2 1 0 1 1 2 4 2 0 0 0 0 0 2 1 3 1 4 1 3 0 3 3 2 0 0 0 0 1
Wind_Speed
nan nan nan nan nan nan nan nan nan nan nan nan nan nan nan nan nan nan 42 46 36 nan 32 35 34 30 30 30 32 36 37 35 32 29 28 31 32 29 27 26 23 18 14 18 21 23 24 23 23 23 23 22 25 30 31 30 32 30 28 27 25 23 22 20 19 18 18 17 17 16 15 16 14 12 12 12 13 14 14 14 18 17 17 18 18 19 21
nan nan nan nan nan nan nan nan nan nan nan nan 32 28 nan 34 32 nan nan 41 46 45 42 35 34 31 31 35 39 38 37 37 36 35 31 31 32 32 32 31 28 24 22 21 20 22 22 21 20 20 20 20 20 23 26 29 31 31 29 27 25 24 23 22 23 24 25 26 24 21 18 17 17 16 13 13 13 14 15 16 17 19 19 18 20 20 17
nan nan nan nan nan nan nan nan nan nan nan nan 37 nan 35 39 31 29 nan nan 39 42 42 42 35 32 34 32 36 40 40 39 38 36 36 36 35 35 35 34 33 31 29 27 25 24 22 20 18 16 16 18 18 18 19 21 26 30 32 29 27 25 24 24 24 26 27 27 28 28 26 23 21 19 17 15 15 16 16 17 19 21 21 20 20 24 21
nan nan nan nan nan nan nan nan nan nan nan nan 36 36 43 36 31 nan nan nan 37 35 35 37 33 29 29 35 38 38 39 41 42 41 39 37 36 36 37 35 33 33 34 34 34 32 28 24 20 18 15 17 18 17 16 15 17 21 23 24 24 25 26 28 28 27 28 28 28 27 26 24 24 24 24 22 19 19 19 19 22 22 23 23 23 21 22
nan nan nan nan nan nan nan nan nan nan 34 nan nan 38 41 38 37 34 28 nan 43 32 29 30 29 27 32 36 39 40 42 41 41 41 40 37 36 36 36 37 36 37 38 37 35 33 33 33 29 25 22 20 20 17 16 15 15 15 16 16 17 18 22 26 29 31 31 30 28 27 25 25 24 24 22 21 21 21 20 21 22 23 22 23 24 22 21
nan nan nan nan nan nan nan 36 32 30 28 26 nan nan 45 45 40 39 35 38 36 32 26 26 27 32 34 35 41 45 42 39 41 41 41 41 40 40 41 39 39 39 40 40 40 38 38 37 34 32 30 28 27 27 25 21 16 15 14 13 13 16 19 21 23 27 32 33 31 30 30 31 29 25 21 18 20 21 22 26 30 28 22 18 21 24 25
nan nan nan nan nan 25 38 30 40 35 nan nan nan 40 40 46 44 46 44 33 39 31 35 39 41 41 41 43 43 42 41 41 40 41 43 43 44 44 43 43 43 45 45 45 43 42 40 38 35 34 33 31 30 29 28 26 23 21 20 21 22 22 23 25 25 25 26 30 29 30 31 30 29 27 18 18 20 21 24 25 23 23 21 18 17 21 25
nan nan 17 nan 20 30 nan nan nan nan nan nan nan nan 43 48 47 44 44 38 47 43 42 39 37 39 39 40 45 47 44 39 39 39 41 43 44 46 46 47 47 47 48 48 48 46 43 42 41 39 37 35 34 32 29 29 29 28 27 27 27 25 27 28 28 24 21 22 30 29 27 26 22 16 12 16 21 23 23 21 19 19 23 32 29 23 23
nan nan nan nan 29 nan nan nan nan nan 40 39 37 35 35 43 43 47 46 40 41 43 46 41 40 39 36 40 46 47 45 42 43 44 44 45 45 47 48 49 50 50 50 49 49 48 47 47 46 43 40 38 38 37 35 34 33 32 31 32 32 31 29 26 25 24 25 27 26 26 26 23 20 21 15 16 18 20 20 16 14 15 20 24 27 35 32
10 nan nan nan 18 nan 25 27 nan nan nan nan nan nan 39 45 44 43 48 43 41 39 40 41 40 36 33 37 42 43 43 45 48 46 44 46 48 49 50 49 50 51 51 50 49 49 50 49 47 44 40 40 40 38 37 35 35 36 35 36 35 33 31 28 26 25 27 28 28 30 27 26 21 18 19 23 19 18 15 15 13 16 21 23 28 34 35
7 8 nan nan nan nan nan 22 nan nan nan nan 37 nan 33 nan 40 40 39 37 39 38 37 32 32 31 32 40 42 43 45 46 46 47 48 50 50 50 51 52 53 53 52 51 51 51 51 51 49 48 43 40 40 39 38 37 36 35 36 36 35 34 32 29 28 28 28 28 30 30 28 28 26 24 23 22 21 19 20 19 17 16 17 19 22 29 32
nan 11 13 nan 24 26 27 25 20 nan nan nan 30 26 33 nan nan 37 40 39 36 36 34 33 31 33 35 42 45 47 47 47 48 49 50 49 51 52 54 nan 54 53 52 51 52 52 51 50 50 48 45 43 43 41 40 39 38 37 35 35 35 35 34 33 31 31 31 32 32 30 29 28 27 26 26 26 25 25 25 25 23 22 21 20 23 26 31
nan nan nan 19 23 22 25 23 nan nan nan nan nan nan nan 38 36 nan 38 39 38 38 36 36 34 42 45 47 45 45 nan 50 50 50 51 53 53 54 54 54 nan 53 53 52 51 51 49 nan 50 49 46 45 45 43 42 41 41 39 36 34 35 37 35 35 34 33 34 34 34 33 32 30 28 27 26 26 26 28 27 26 24 21 22 22 21 21 24
nan nan nan 20 20 16 17 15 19 23 nan 15 nan 37 33 34 35 33 35 37 39 40 41 44 43 41 47 49 46 45 nan nan nan nan 49 51 52 52 52 52 50 nan 50 51 nan nan 49 nan 49 49 nan nan 45 44 44 44 42 41 39 37 35 36 36 36 36 36 36 35 35 35 34 33 32 30 28 28 30 30 28 27 30 29 28 24 21 21 21
nan nan nan nan nan 17 18 15 13 27 26 25 29 30 32 37 35 35 35 34 37 37 42 47 45 47 46 49 nan nan nan nan nan nan nan nan 47 nan 50 nan nan 47 47 49 49 nan nan nan 46 48 48 46 nan nan nan 45 nan nan 42 40 37 36 36 37 36 37 37 37 35 35 36 36 nan nan 34 35 34 31 33 34 35 36 35 34 32 32 30
13 15 16 16 14 15 16 17 19 19 25 24 26 26 29 33 35 32 34 28 31 39 49 47 49 48 45 nan nan nan nan nan nan nan nan nan nan nan nan nan nan nan nan nan nan nan nan nan nan nan 47 45 44 nan nan 44 nan nan nan nan 38 37 37 37 37 37 37 37 37 36 37 36 nan nan nan 36 36 36 36 36 36 36 36 35 35 35 35
nan 20 20 20 16 14 18 18 19 18 19 20 23 25 29 31 31 33 34 28 35 40 44 45 45 43 43 45 44 nan nan nan nan nan nan nan nan nan nan nan nan nan nan nan nan nan nan nan nan nan nan nan nan 45 44 nan nan nan 41 nan nan 40 38 38 38 37 37 38 38 38 37 37 nan nan nan nan nan nan nan nan nan nan 36 37 35 35 34
19 21 nan nan 21 19 18 20 17 18 18 19 20 25 26 29 29 31 33 34 36 33 39 40 41 43 44 43 44 nan nan nan nan nan nan nan nan nan nan nan nan nan nan nan nan nan nan nan nan nan nan nan nan nan nan nan nan nan nan nan nan 41 40 nan nan nan 36 38 39 39 38 37 nan nan nan nan nan nan nan nan nan nan nan nan nan 34 34
nan 18 19 21 22 21 20 20 20 19 20 20 20 22 23 26 27 31 35 32 35 38 38 40 40 41 40 39 37 nan nan nan nan nan nan nan nan nan nan nan nan nan nan nan nan nan nan nan nan nan nan nan nan nan nan nan nan nan nan nan nan nan nan 42 42 42 43 42 40 40 39 38 nan nan nan nan nan nan nan nan nan nan nan nan nan nan nan
12 21 20 22 22 22 21 20 21 21 22 23 22 22 22 23 24 26 29 32 36 37 39 37 39 39 40 42 40 39 nan nan nan nan nan nan nan nan nan nan nan nan nan nan nan nan nan nan nan nan nan nan nan nan nan nan nan nan nan nan nan nan nan nan nan nan nan nan nan nan nan nan nan nan nan nan nan nan nan nan nan nan nan nan nan nan nan
15 21 18 20 22 24 22 23 22 23 23 23 23 23 24 24 25 24 27 30 32 32 35 35 35 36 37 40 41 43 40 36 nan nan nan nan nan nan nan nan nan nan nan nan nan nan nan nan nan nan nan nan nan nan nan nan nan nan nan nan nan nan nan nan nan nan nan nan nan nan nan nan nan nan nan nan nan nan nan nan nan nan nan nan nan nan nan
nan 17 16 17 15 19 18 21 22 22 24 23 24 24 26 27 27 26 27 28 30 30 32 31 33 34 37 37 39 42 45 45 43 nan nan nan nan nan nan nan nan nan nan nan nan nan nan nan nan nan nan nan nan nan nan nan nan nan nan nan nan nan nan nan nan nan nan nan nan nan nan nan nan nan nan nan nan nan nan nan nan nan nan nan nan nan nan
18 21 16 15 17 18 20 20 21 20 20 23 24 25 26 27 29 28 28 28 28 29 29 29 29 32 32 35 38 42 45 46 45 42 40 36 nan nan nan nan nan nan nan nan nan nan nan nan nan nan nan nan nan nan nan nan nan nan nan nan nan nan nan nan nan nan nan nan nan nan nan nan nan nan nan nan nan nan nan nan nan nan nan nan nan nan nan
16 19 17 18 16 19 22 23 23 23 22 22 24 24 26 26 28 29 30 30 29 30 30 29 28 29 31 32 35 39 43 44 45 44 44 nan nan nan nan nan nan nan nan nan nan nan nan nan nan nan nan nan nan nan nan nan nan nan nan nan nan nan nan nan nan nan nan nan nan nan nan nan nan nan nan nan nan nan nan nan nan nan nan nan nan nan nan
19 22 20 20 22 22 23 23 24 24 25 24 25 25 26 26 27 28 29 30 31 30 31 31 32 32 32 31 30 33 36 40 41 43 nan nan nan nan nan nan nan nan nan nan nan nan nan nan nan nan nan nan nan nan nan nan nan nan nan nan nan nan nan nan nan nan nan nan nan nan nan nan nan nan nan nan nan nan nan nan nan nan nan nan nan nan nan
19 20 20 22 20 21 23 22 24 25 26 24 24 26 27 28 nan 25 29 29 31 31 34 34 34 34 33 32 30 29 30 32 39 41 41 nan nan nan nan nan nan nan nan nan nan nan nan nan nan nan nan nan nan nan nan nan nan nan nan nan nan nan nan nan nan nan nan nan nan nan nan nan nan nan nan nan nan nan nan nan nan nan nan nan nan nan nan
20 21 20 20 19 21 26 24 26 27 25 24 25 25 26 29 28 27 29 30 32 32 34 35 37 38 37 36 34 34 33 33 35 37 37 37 nan nan nan nan nan nan nan nan nan nan nan nan nan nan nan nan nan nan nan nan nan nan nan nan nan nan nan nan nan nan nan nan nan nan nan nan nan nan nan nan nan nan nan nan nan nan nan nan nan nan nan
21 22 21 18 21 22 24 27 26 26 26 26 26 25 nan nan nan 28 30 33 34 34 35 36 38 39 39 40 39 39 40 39 37 38 38 37 36 nan nan nan nan nan nan nan nan nan nan nan nan nan nan nan nan nan nan nan nan nan nan nan nan nan nan nan nan nan nan nan nan nan nan nan nan nan nan nan nan nan nan nan nan nan nan nan nan nan nan
22 22 22 21 23 25 26 27 25 25 26 27 nan nan nan nan nan nan nan nan 36 35 37 37 39 40 39 41 41 42 42 42 42 42 41 41 41 40 nan nan nan nan nan nan nan nan nan nan nan nan nan nan nan nan nan nan nan nan nan nan nan nan nan nan nan nan nan nan nan nan nan nan nan nan nan nan nan nan nan nan nan nan nan nan nan nan nan
23 24 24 23 25 26 25 26 25 26 nan 28 nan nan nan nan nan nan nan nan nan nan nan 41 39 39 40 40 41 41 43 43 43 44 44 44 44 43 43 42 nan nan nan nan nan nan nan nan nan nan nan nan nan nan nan nan nan nan nan nan nan nan nan nan nan nan nan nan nan nan nan nan nan nan nan nan nan nan nan nan nan nan nan nan nan nan nan
24 25 24 24 24 25 25 25 26 27 nan nan nan nan nan nan nan nan nan nan nan nan nan nan nan nan 42 41 41 41 42 43 44 44 45 46 46 46 46 47 44 43 nan nan 44 nan nan nan nan nan nan nan nan nan nan nan nan nan nan nan nan nan nan nan nan nan nan nan nan nan nan nan nan nan nan nan nan nan nan nan nan nan nan nan nan nan nan
24 25 24 24 24 24 24 25 nan nan nan nan nan nan nan nan nan nan nan nan nan nan nan nan nan nan nan nan 44 43 43 43 43 43 46 47 46 47 47 46 45 45 45 45 46 nan nan nan nan nan nan nan nan nan nan nan nan nan nan nan nan nan nan nan nan nan nan nan nan nan nan nan nan nan nan nan nan nan nan nan nan nan nan nan nan nan nan
22 23 23 24 24 24 23 nan nan nan nan nan nan nan nan nan nan nan nan nan nan nan nan nan nan nan nan nan nan nan 45 44 43 43 43 43 44 46 46 44 44 46 47 43 42 46 nan nan nan nan nan nan nan nan nan nan nan nan nan nan nan nan nan nan nan nan nan nan nan nan nan nan nan nan nan nan nan nan nan nan nan nan nan nan nan nan nan
nan nan nan nan nan nan nan nan nan nan nan nan nan nan nan nan nan nan nan nan nan nan nan nan nan nan nan nan nan nan nan nan 46 45 44 43 43 45 45 42 44 48 47 43 43 45 nan nan nan nan nan nan nan nan nan nan nan nan nan nan nan nan nan nan nan nan nan nan nan nan nan nan nan nan nan nan nan nan nan nan nan nan nan nan nan nan nan
21 20 21 22 22 22 23 24 nan nan nan nan nan nan 34 35 35 nan nan nan nan nan nan nan nan nan nan nan nan nan nan nan 47 47 46 46 45 45 46 45 46 47 46 46 51 52 nan nan nan nan nan nan nan nan nan nan nan nan nan nan nan nan nan nan nan nan nan nan nan nan nan nan nan nan nan nan nan nan nan nan nan nan nan nan nan nan nan
23 22 23 24 24 23 23 24 26 nan 29 nan 31 32 33 32 nan nan nan nan nan nan nan nan nan nan nan nan nan nan 39 41 42 45 47 48 49 50 50 47 46 46 44 43 50 53 53 53 nan nan nan nan nan nan nan nan nan nan nan nan nan nan nan nan nan nan nan nan nan nan nan nan nan nan nan nan nan nan nan nan nan nan nan nan nan nan nan
24 24 24 24 24 24 25 27 28 29 30 31 31 nan nan nan nan nan nan nan nan nan nan nan nan nan nan nan nan 38 39 39 41 42 44 47 48 49 49 48 46 45 45 47 55 57 56 nan nan nan nan nan nan nan nan nan nan nan nan nan nan nan nan nan nan nan nan nan nan nan nan nan nan nan nan nan nan nan nan nan nan nan nan nan nan nan nan
25 24 23 24 24 24 25 nan nan nan nan nan nan nan nan nan nan nan nan nan nan nan nan nan nan nan nan nan 35 35 37 39 40 41 42 43 45 47 48 47 47 48 47 53 58 57 55 nan nan nan nan nan nan nan nan nan nan nan nan nan nan nan nan nan nan nan nan nan nan nan nan nan nan nan nan nan nan nan nan nan nan nan nan nan nan nan nan
24 nan nan nan nan nan nan nan nan nan nan nan nan nan nan nan nan nan nan nan nan nan nan nan nan nan 28 30 31 32 33 35 37 39 42 43 44 44 45 48 47 48 52 60 60 60 nan nan nan nan nan nan nan nan nan nan nan nan nan nan nan nan nan nan nan nan nan nan nan nan nan nan nan nan nan nan nan nan nan nan nan nan nan nan nan nan nan
nan nan nan nan nan nan nan nan nan nan nan nan nan nan nan nan nan nan nan nan nan nan nan nan nan nan 28 30 31 32 33 34 35 36 37 42 44 44 46 47 50 52 55 61 nan nan nan nan nan nan nan nan nan nan nan nan nan nan nan nan nan nan nan nan nan nan nan nan nan nan nan nan nan nan nan nan nan nan nan nan nan nan nan nan nan nan nan
nan nan nan nan nan nan nan nan nan nan nan nan nan nan nan nan nan nan nan nan nan nan nan 22 24 26 28 30 32 33 34 35 34 34 36 39 40 43 43 48 50 51 53 nan nan nan 52 nan nan nan nan nan nan nan nan nan nan nan nan nan nan nan nan nan nan nan nan nan nan nan nan nan nan nan nan nan nan nan nan nan nan nan nan nan nan nan nan
nan nan nan nan nan nan nan nan nan nan nan nan nan nan nan nan nan nan nan nan nan nan 21 nan nan 30 34 nan nan nan 32 34 36 35 34 35 33 39 46 46 45 47 nan nan nan nan nan nan nan nan nan nan nan nan nan nan nan nan nan nan nan nan nan nan nan nan nan nan nan nan nan nan nan nan nan nan nan nan nan nan nan nan nan nan nan nan nan
nan nan nan nan nan nan nan nan nan nan nan nan nan nan nan nan nan nan nan nan nan nan nan 26 34 37 33 nan nan nan 28 35 34 36 39 39 38 41 42 43 43 46 51 nan nan nan nan nan nan nan nan nan nan nan nan nan nan nan nan nan nan nan nan nan nan nan nan nan nan nan nan nan nan nan nan nan nan nan nan nan nan nan nan nan nan nan nan
nan nan nan nan nan nan nan nan nan nan nan nan nan nan nan nan nan nan nan nan nan nan 25 31 35 34 nan nan 24 nan 22 31 34 36 38 39 39 nan nan nan 39 40 44 nan nan nan nan nan nan nan nan nan nan nan nan nan nan nan nan nan nan nan nan nan nan nan nan nan nan nan nan nan nan nan nan nan nan nan nan nan nan nan nan nan nan nan nan
nan nan nan nan nan nan nan nan nan nan nan nan nan nan nan nan nan nan nan nan nan nan 28 30 32 nan nan nan nan nan 30 35 33 34 34 nan nan nan nan nan nan nan nan nan nan nan nan nan nan nan nan nan nan nan nan nan nan nan nan nan nan nan nan nan nan nan nan nan nan nan nan nan nan nan nan nan nan nan nan nan nan nan nan nan nan nan nan
nan nan nan nan nan nan nan nan nan nan nan nan nan nan nan nan nan nan nan nan nan 24 26 29 32 31 31 31 nan nan nan nan nan nan nan nan nan nan nan nan nan nan nan nan nan nan nan nan nan nan nan nan nan nan nan nan nan nan nan nan nan nan nan nan nan nan nan nan nan nan nan nan nan nan nan nan nan nan nan nan nan nan nan nan nan nan nan
nan nan nan nan nan nan nan nan nan nan nan nan nan nan nan nan nan nan nan nan nan nan nan 21 26 26 24 25 26 nan nan nan nan nan nan nan nan nan nan nan nan nan nan nan nan nan nan nan nan nan nan nan nan nan nan nan nan nan nan nan nan nan nan nan nan nan nan nan nan nan nan nan nan nan nan nan nan nan nan nan nan nan nan nan nan nan nan
nan nan nan nan nan nan nan nan nan nan nan nan nan nan nan nan nan nan nan nan nan nan nan nan nan 22 22 nan nan nan nan nan nan nan nan nan nan nan nan nan nan nan nan nan nan nan nan nan nan nan nan nan nan nan nan nan nan nan nan nan nan nan nan nan nan nan nan nan nan nan nan nan nan nan nan nan nan nan nan nan nan nan nan nan nan nan nan
nan nan nan nan nan nan nan nan nan nan nan nan nan nan nan nan nan nan nan nan nan nan nan nan nan nan nan nan nan nan nan nan nan nan nan nan nan nan nan nan nan nan nan nan nan nan nan nan nan nan nan nan nan nan nan nan nan nan nan nan nan nan nan nan nan nan nan nan nan nan nan nan nan nan nan nan nan nan nan nan nan nan nan nan nan nan nan
nan nan nan nan nan nan nan nan nan nan nan nan nan nan nan nan nan nan nan nan nan nan nan nan nan nan nan nan nan nan 13 nan nan nan nan nan nan nan nan nan nan nan nan nan nan nan nan nan nan nan nan nan nan nan nan nan nan nan nan nan nan nan nan nan nan nan nan nan nan nan nan nan nan nan nan nan nan nan nan nan nan nan nan nan nan nan nan
nan nan nan nan nan nan nan nan nan nan nan nan nan nan nan nan nan nan nan nan nan nan nan nan nan nan nan nan nan nan nan nan nan nan nan nan nan nan nan nan nan nan nan nan nan nan nan nan nan nan nan nan nan nan nan nan nan nan nan nan nan nan nan nan nan nan nan nan nan nan nan nan nan nan nan nan nan nan nan nan nan nan nan nan nan nan nan
nan nan nan nan nan nan nan nan nan nan nan nan nan nan nan nan nan nan nan nan nan nan nan nan nan nan nan nan nan nan nan nan nan nan nan nan nan nan nan nan nan nan nan nan nan nan nan nan nan nan nan nan nan nan nan nan nan nan nan nan nan nan nan nan nan nan nan nan nan nan nan nan nan nan nan nan nan nan nan nan nan nan nan nan nan nan nan
Wind_Direction
nan nan nan nan nan nan nan nan nan nan nan nan nan nan nan nan nan nan 216 208 214 nan 236 241 233 228 221 225 226 227 231 232 235 239 241 240 241 247 249 256 262 266 270 277 280 283 283 283 283 282 283 277 248 230 230 232 228 230 232 232 234 234 231 229 230 231 233 239 246 245 244 242 240 232 238 246 252 259 260 257 264 266 265 267 276 276 272
nan nan nan nan nan nan nan nan nan nan nan nan 221 221 nan 209 210 nan nan 223 222 223 229 236 241 227 225 226 228 231 230 230 233 238 239 241 244 243 242 243 252 263 268 267 269 277 282 290 291 287 289 290 268 250 243 241 238 236 233 231 232 232 229 230 229 228 230 228 236 241 247 247 245 246 246 250 260 268 267 267 262 263 264 265 267 269 275
nan nan nan nan nan nan nan nan nan nan nan nan 221 nan 220 218 212 211 nan nan 232 231 230 237 237 233 227 225 232 232 232 231 233 237 240 243 247 249 249 245 244 250 253 257 262 265 270 281 292 297 300 298 289 275 265 257 248 244 242 239 237 236 235 234 232 231 230 230 230 231 230 236 245 248 247 250 258 262 267 270 268 262 260 266 264 253 254
nan nan nan nan nan nan nan nan nan nan nan nan 220 220 223 215 217 nan nan nan 235 220 228 232 239 233 226 226 230 234 233 233 232 237 240 242 245 249 252 252 253 253 253 254 255 253 257 267 277 281 287 295 298 297 292 289 275 262 254 248 243 239 239 238 237 234 235 236 237 236 240 237 235 235 237 239 244 254 259 267 266 266 263 258 256 264 259
nan nan nan nan nan nan nan nan nan nan 230 nan nan 233 232 223 217 215 216 nan 225 237 234 238 235 237 235 230 226 230 232 232 233 235 240 242 243 245 248 252 252 248 249 251 253 257 257 256 256 259 266 270 271 278 286 290 287 282 272 259 251 244 242 244 246 246 245 245 247 248 247 247 245 240 241 244 243 244 252 259 266 271 268 262 262 261 259
nan nan nan nan nan nan nan 215 222 228 238 235 nan nan 222 223 227 227 228 219 230 231 239 238 233 237 237 233 228 227 228 233 235 235 238 241 243 244 244 248 251 252 251 251 251 251 248 249 254 256 255 259 263 262 261 262 272 279 272 268 259 253 247 248 250 249 247 244 246 251 252 252 250 244 242 250 252 251 250 251 249 241 230 248 263 264 263
nan nan nan nan nan 230 234 232 229 219 nan nan nan 234 220 225 226 221 222 230 237 233 232 236 239 240 238 235 233 230 228 229 234 237 238 240 243 245 246 247 249 251 253 254 255 255 254 256 258 260 262 262 261 261 261 262 261 260 260 258 255 255 254 252 255 256 252 242 241 248 249 247 244 240 232 246 259 260 256 255 256 259 258 238 247 271 272
nan nan 227 nan 230 237 nan nan nan nan nan nan nan nan 228 225 228 228 231 223 237 237 240 249 246 247 246 244 238 230 225 228 238 242 242 242 242 243 243 246 248 251 252 252 253 254 256 257 257 258 260 262 264 262 260 258 257 255 255 256 257 256 253 247 249 253 250 239 240 240 241 236 235 237 238 252 263 264 262 260 259 254 245 247 239 235 254
nan nan nan nan 232 nan nan nan nan nan 229 228 227 232 235 229 229 233 234 232 236 241 247 247 248 250 253 250 242 233 229 233 240 242 245 244 243 244 244 244 247 248 249 252 253 254 254 254 254 256 259 260 261 261 259 257 255 253 254 253 253 253 254 254 249 245 246 247 244 246 240 245 238 223 225 252 257 260 268 273 272 256 245 251 254 249 232
212 nan nan nan 237 nan 235 218 nan nan nan nan nan nan 241 226 233 230 231 230 234 243 246 250 254 253 249 254 245 239 233 238 242 240 245 248 246 245 246 244 244 245 246 249 251 253 256 255 257 261 262 262 262 260 259 259 256 253 251 252 251 247 246 246 250 253 254 251 249 251 257 256 253 253 249 245 244 257 271 280 270 260 258 253 256 255 248
217 237 nan nan nan nan nan 228 nan nan nan nan 230 nan 243 nan 233 237 238 231 231 240 247 239 249 248 247 248 247 244 238 235 241 247 243 243 244 245 245 245 244 241 240 243 247 249 251 254 253 252 252 257 259 259 260 258 257 253 250 250 251 250 244 241 247 252 253 253 252 250 250 253 254 253 250 254 259 255 262 264 264 268 265 256 257 260 254
nan 209 231 nan 231 241 241 232 229 nan nan nan 229 229 242 nan nan 231 231 233 236 235 237 237 240 240 246 252 248 245 242 240 237 238 245 248 246 244 243 nan 243 242 241 239 239 241 243 246 249 252 252 251 249 249 251 252 252 249 245 243 247 248 250 250 248 249 250 248 248 250 252 254 253 252 252 251 254 258 258 255 255 255 252 261 264 260 257
nan nan nan 253 245 241 229 225 nan nan nan nan nan nan nan 228 229 nan 231 235 239 241 240 241 238 245 249 251 253 251 nan 244 238 242 244 245 244 244 243 242 nan 243 244 243 239 238 237 nan 240 243 245 246 248 246 246 246 246 246 246 244 243 246 247 249 249 247 248 248 248 247 248 251 252 254 254 259 263 262 261 260 258 261 261 249 249 257 258
nan nan nan 249 260 240 227 223 226 223 nan 237 nan 231 229 228 228 229 233 234 238 240 241 244 247 252 254 255 253 254 nan nan nan nan 243 243 246 250 246 241 241 nan 244 244 nan nan 238 nan 239 243 nan nan 243 243 241 240 241 243 244 242 241 242 244 246 246 245 246 245 245 246 248 249 252 254 258 258 262 263 262 261 263 263 259 255 256 266 265
nan nan nan nan nan 250 230 221 239 228 235 230 224 223 230 232 230 230 227 227 239 240 239 248 252 252 251 254 nan nan nan nan nan nan nan nan 241 nan 243 nan nan 244 243 243 240 nan nan nan 238 239 241 241 nan nan nan 238 nan nan 240 241 241 240 239 242 244 244 244 244 245 248 249 248 nan nan 252 255 254 255 259 262 261 262 265 269 270 269 272
214 226 230 250 245 244 236 228 245 240 236 232 231 229 230 230 232 225 234 226 232 235 239 237 248 251 251 nan nan nan nan nan nan nan nan nan nan nan nan nan nan nan nan nan nan nan nan nan nan nan 240 240 241 nan nan 239 nan nan nan nan 243 243 242 240 241 242 243 244 245 246 248 250 nan nan nan 252 254 256 258 261 263 263 265 267 269 271 273
nan 234 247 259 259 258 250 245 252 247 240 238 234 232 233 233 233 231 227 224 233 230 241 244 248 249 251 254 257 nan nan nan nan nan nan nan nan nan nan nan nan nan nan nan nan nan nan nan nan nan nan nan nan 237 237 nan nan nan 237 nan nan 242 240 240 242 243 244 244 244 245 247 248 nan nan nan nan nan nan nan nan nan nan 265 267 266 265 265
250 258 nan nan 264 255 260 257 245 242 240 236 231 233 233 239 232 232 234 226 240 239 239 246 247 245 244 247 255 nan nan nan nan nan nan nan nan nan nan nan nan nan nan nan nan nan nan nan nan nan nan nan nan nan nan nan nan nan nan nan nan 238 239 nan nan nan 245 249 248 246 247 246 nan nan nan nan nan nan nan nan nan nan nan nan nan 265 263
nan 263 267 265 262 261 255 258 256 252 245 242 235 236 235 237 233 235 237 237 239 243 249 254 250 251 253 252 249 nan nan nan nan nan nan nan nan nan nan nan nan nan nan nan nan nan nan nan nan nan nan nan nan nan nan nan nan nan nan nan nan nan nan 236 238 236 235 235 239 244 242 247 nan nan nan nan nan nan nan nan nan nan nan nan nan nan nan
254 255 264 262 257 254 244 242 249 248 246 242 239 241 243 242 241 240 240 241 245 248 250 253 253 253 252 252 252 255 nan nan nan nan nan nan nan nan nan nan nan nan nan nan nan nan nan nan nan nan nan nan nan nan nan nan nan nan nan nan nan nan nan nan nan nan nan nan nan nan nan nan nan nan nan nan nan nan nan nan nan nan nan nan nan nan nan
264 286 284 269 265 257 253 256 249 245 242 242 241 238 241 243 243 242 244 242 243 245 252 256 255 253 253 255 256 255 255 256 nan nan nan nan nan nan nan nan nan nan nan nan nan nan nan nan nan nan nan nan nan nan nan nan nan nan nan nan nan nan nan nan nan nan nan nan nan nan nan nan nan nan nan nan nan nan nan nan nan nan nan nan nan nan nan
nan 259 248 258 273 275 265 259 258 254 251 246 244 243 243 243 245 244 247 251 250 250 254 256 255 257 255 255 255 256 254 256 259 nan nan nan nan nan nan nan nan nan nan nan nan nan nan nan nan nan nan nan nan nan nan nan nan nan nan nan nan nan nan nan nan nan nan nan nan nan nan nan nan nan nan nan nan nan nan nan nan nan nan nan nan nan nan
254 259 264 257 256 270 275 270 265 261 256 254 251 248 245 244 245 244 246 248 253 257 256 256 258 263 261 258 257 257 257 259 260 260 255 253 nan nan nan nan nan nan nan nan nan nan nan nan nan nan nan nan nan nan nan nan nan nan nan nan nan nan nan nan nan nan nan nan nan nan nan nan nan nan nan nan nan nan nan nan nan nan nan nan nan nan nan
261 279 272 264 263 263 273 270 267 263 257 257 260 257 255 251 247 248 249 247 246 249 253 255 254 259 266 265 262 259 259 261 260 259 254 nan nan nan nan nan nan nan nan nan nan nan nan nan nan nan nan nan nan nan nan nan nan nan nan nan nan nan nan nan nan nan nan nan nan nan nan nan nan nan nan nan nan nan nan nan nan nan nan nan nan nan nan
258 264 267 263 262 271 274 274 270 266 263 256 258 255 252 255 256 254 254 254 252 252 253 254 257 256 263 266 263 261 262 263 264 265 nan nan nan nan nan nan nan nan nan nan nan nan nan nan nan nan nan nan nan nan nan nan nan nan nan nan nan nan nan nan nan nan nan nan nan nan nan nan nan nan nan nan nan nan nan nan nan nan nan nan nan nan nan
269 271 267 270 272 275 273 271 275 269 266 264 265 266 267 262 nan 257 262 260 261 257 257 257 260 259 257 261 262 260 259 260 266 268 265 nan nan nan nan nan nan nan nan nan nan nan nan nan nan nan nan nan nan nan nan nan nan nan nan nan nan nan nan nan nan nan nan nan nan nan nan nan nan nan nan nan nan nan nan nan nan nan nan nan nan nan nan
273 271 273 280 282 279 274 266 266 272 269 266 263 263 264 266 270 264 263 263 262 262 261 261 260 263 262 260 258 259 259 258 262 266 265 265 nan nan nan nan nan nan nan nan nan nan nan nan nan nan nan nan nan nan nan nan nan nan nan nan nan nan nan nan nan nan nan nan nan nan nan nan nan nan nan nan nan nan nan nan nan nan nan nan nan nan nan
278 281 280 273 270 271 273 276 273 273 272 268 267 266 nan nan nan 269 269 268 266 263 263 260 262 264 264 264 262 262 263 263 261 261 262 264 263 nan nan nan nan nan nan nan nan nan nan nan nan nan nan nan nan nan nan nan nan nan nan nan nan nan nan nan nan nan nan nan nan nan nan nan nan nan nan nan nan nan nan nan nan nan nan nan nan nan nan
285 285 283 278 272 273 275 277 277 274 272 272 nan nan nan nan nan nan nan nan 267 266 266 266 264 261 260 262 263 263 263 263 263 263 262 261 262 262 nan nan nan nan nan nan nan nan nan nan nan nan nan nan nan nan nan nan nan nan nan nan nan nan nan nan nan nan nan nan nan nan nan nan nan nan nan nan nan nan nan nan nan nan nan nan nan nan nan
288 287 286 284 284 284 283 282 278 277 nan 274 nan nan nan nan nan nan nan nan nan nan nan 263 262 264 263 261 262 262 263 265 264 264 263 262 262 263 264 264 nan nan nan nan nan nan nan nan nan nan nan nan nan nan nan nan nan nan nan nan nan nan nan nan nan nan nan nan nan nan nan nan nan nan nan nan nan nan nan nan nan nan nan nan nan nan nan
292 289 289 288 288 287 287 285 283 282 nan nan nan nan nan nan nan nan nan nan nan nan nan nan nan nan 261 262 261 260 259 261 263 264 265 265 264 264 265 266 265 264 nan nan 263 nan nan nan nan nan nan nan nan nan nan nan nan nan nan nan nan nan nan nan nan nan nan nan nan nan nan nan nan nan nan nan nan nan nan nan nan nan nan nan nan nan nan
291 291 292 291 290 290 288 284 nan nan nan nan nan nan nan nan nan nan nan nan nan nan nan nan nan nan nan nan 258 260 261 260 259 261 264 265 266 267 267 266 265 264 266 268 267 nan nan nan nan nan nan nan nan nan nan nan nan nan nan nan nan nan nan nan nan nan nan nan nan nan nan nan nan nan nan nan nan nan nan nan nan nan nan nan nan nan nan
293 294 295 292 289 287 284 nan nan nan nan nan nan nan nan nan nan nan nan nan nan nan nan nan nan nan nan nan nan nan 259 260 260 260 261 263 264 266 266 265 265 264 264 263 267 267 nan nan nan nan nan nan nan nan nan nan nan nan nan nan nan nan nan nan nan nan nan nan nan nan nan nan nan nan nan nan nan nan nan nan nan nan nan nan nan nan nan
nan nan nan nan nan nan nan nan nan nan nan nan nan nan nan nan nan nan nan nan nan nan nan nan nan nan nan nan nan nan nan nan 260 261 261 261 262 263 264 263 262 262 261 261 261 263 nan nan nan nan nan nan nan nan nan nan nan nan nan nan nan nan nan nan nan nan nan nan nan nan nan nan nan nan nan nan nan nan nan nan nan nan nan nan nan nan nan
285 282 280 277 279 281 284 286 nan nan nan nan nan nan 291 288 286 nan nan nan nan nan nan nan nan nan nan nan nan nan nan nan 259 259 259 259 260 261 261 261 260 260 261 262 264 262 nan nan nan nan nan nan nan nan nan nan nan nan nan nan nan nan nan nan nan nan nan nan nan nan nan nan nan nan nan nan nan nan nan nan nan nan nan nan nan nan nan
289 287 285 283 282 284 287 291 293 nan 295 nan 295 292 290 287 nan nan nan nan nan nan nan nan nan nan nan nan nan nan 261 261 260 259 259 259 258 259 261 262 261 260 259 261 263 261 261 261 nan nan nan nan nan nan nan nan nan nan nan nan nan nan nan nan nan nan nan nan nan nan nan nan nan nan nan nan nan nan nan nan nan nan nan nan nan nan nan
292 290 287 287 288 289 291 292 294 295 295 295 293 nan nan nan nan nan nan nan nan nan nan nan nan nan nan nan nan 265 262 260 259 258 258 259 259 259 259 261 261 260 258 259 260 260 260 nan nan nan nan nan nan nan nan nan nan nan nan nan nan nan nan nan nan nan nan nan nan nan nan nan nan nan nan nan nan nan nan nan nan nan nan nan nan nan nan
293 290 289 291 293 297 298 nan nan nan nan nan nan nan nan nan nan nan nan nan nan nan nan nan nan nan nan nan 273 271 268 264 260 258 257 257 258 260 260 260 258 254 254 256 259 262 261 nan nan nan nan nan nan nan nan nan nan nan nan nan nan nan nan nan nan nan nan nan nan nan nan nan nan nan nan nan nan nan nan nan nan nan nan nan nan nan nan
299 nan nan nan nan nan nan nan nan nan nan nan nan nan nan nan nan nan nan nan nan nan nan nan nan nan 284 283 281 278 274 269 265 262 258 256 256 258 259 259 256 255 254 255 257 254 nan nan nan nan nan nan nan nan nan nan nan nan nan nan nan nan nan nan nan nan nan nan nan nan nan nan nan nan nan nan nan nan nan nan nan nan nan nan nan nan nan
nan nan nan nan nan nan nan nan nan nan nan nan nan nan nan nan nan nan nan nan nan nan nan nan nan nan 294 293 290 284 277 272 269 265 262 257 257 258 257 257 256 254 258 259 nan nan nan nan nan nan nan nan nan nan nan nan nan nan nan nan nan nan nan nan nan nan nan nan nan nan nan nan nan nan nan nan nan nan nan nan nan nan nan nan nan nan nan
nan nan nan nan nan nan nan nan nan nan nan nan nan nan nan nan nan nan nan nan nan nan nan 289 296 298 294 290 288 283 277 273 270 266 263 260 259 258 257 257 256 259 262 nan nan nan 261 nan nan nan nan nan nan nan nan nan nan nan nan nan nan nan nan nan nan nan nan nan nan nan nan nan nan nan nan nan nan nan nan nan nan nan nan nan nan nan nan
nan nan nan nan nan nan nan nan nan nan nan nan nan nan nan nan nan nan nan nan nan nan 279 nan nan 296 289 nan nan nan 278 274 268 265 265 262 258 257 257 257 259 259 nan nan nan nan nan nan nan nan nan nan nan nan nan nan nan nan nan nan nan nan nan nan nan nan nan nan nan nan nan nan nan nan nan nan nan nan nan nan nan nan nan nan nan nan nan
nan nan nan nan nan nan nan nan nan nan nan nan nan nan nan nan nan nan nan nan nan nan nan 290 294 294 290 nan nan nan 271 270 267 259 253 252 257 259 260 256 254 256 259 nan nan nan nan nan nan nan nan nan nan nan nan nan nan nan nan nan nan nan nan nan nan nan nan nan nan nan nan nan nan nan nan nan nan nan nan nan nan nan nan nan nan nan nan
nan nan nan nan nan nan nan nan nan nan nan nan nan nan nan nan nan nan nan nan nan nan 284 289 294 292 nan nan 259 nan 263 266 263 259 259 257 256 nan nan nan 253 256 260 nan nan nan nan nan nan nan nan nan nan nan nan nan nan nan nan nan nan nan nan nan nan nan nan nan nan nan nan nan nan nan nan nan nan nan nan nan nan nan nan nan nan nan nan
nan nan nan nan nan nan nan nan nan nan nan nan nan nan nan nan nan nan nan nan nan nan 291 298 296 nan nan nan nan nan 255 260 259 257 258 nan nan nan nan nan nan nan nan nan nan nan nan nan nan nan nan nan nan nan nan nan nan nan nan nan nan nan nan nan nan nan nan nan nan nan nan nan nan nan nan nan nan nan nan nan nan nan nan nan nan nan nan
nan nan nan nan nan nan nan nan nan nan nan nan nan nan nan nan nan nan nan nan nan 288 294 298 297 297 297 290 nan nan nan nan nan nan nan nan nan nan nan nan nan nan nan nan nan nan nan nan nan nan nan nan nan nan nan nan nan nan nan nan nan nan nan nan nan nan nan nan nan nan nan nan nan nan nan nan nan nan nan nan nan nan nan nan nan nan nan
nan nan nan nan nan nan nan nan nan nan nan nan nan nan nan nan nan nan nan nan nan nan nan 296 296 295 297 294 283 nan nan nan nan nan nan nan nan nan nan nan nan nan nan nan nan nan nan nan nan nan nan nan nan nan nan nan nan nan nan nan nan nan nan nan nan nan nan nan nan nan nan nan nan nan nan nan nan nan nan nan nan nan nan nan nan nan nan
nan nan nan nan nan nan nan nan nan nan nan nan nan nan nan nan nan nan nan nan nan nan nan nan nan 292 295 nan nan nan nan nan nan nan nan nan nan nan nan nan nan nan nan nan nan nan nan nan nan nan nan nan nan nan nan nan nan nan nan nan nan nan nan nan nan nan nan nan nan nan nan nan nan nan nan nan nan nan nan nan nan nan nan nan nan nan nan
nan nan nan nan nan nan nan nan nan nan nan nan nan nan nan nan nan nan nan nan nan nan nan nan nan nan nan nan nan nan nan nan nan nan nan nan nan nan nan nan nan nan nan nan nan nan nan nan nan nan nan nan nan nan nan nan nan nan nan nan nan nan nan nan nan nan nan nan nan nan nan nan nan nan nan nan nan nan nan nan nan nan nan nan nan nan nan
nan nan nan nan nan nan nan nan nan nan nan nan nan nan nan nan nan nan nan nan nan nan nan nan nan nan nan nan nan nan 250 nan nan nan nan nan nan nan nan nan nan nan nan nan nan nan nan nan nan nan nan nan nan nan nan nan nan nan nan nan nan nan nan nan nan nan nan nan nan nan nan nan nan nan nan nan nan nan nan nan nan nan nan nan nan nan nan
nan nan nan nan nan nan nan nan nan nan nan nan nan nan nan nan nan nan nan nan nan nan nan nan nan nan nan nan nan nan nan nan nan nan nan nan nan nan nan nan nan nan nan nan nan nan nan nan nan nan nan nan nan nan nan nan nan nan nan nan nan nan nan nan nan nan nan nan nan nan nan nan nan nan nan nan nan nan nan nan nan nan nan nan nan nan nan
nan nan nan nan nan nan nan nan nan nan nan nan nan nan nan nan nan nan nan nan nan nan nan nan nan nan nan nan nan nan nan nan nan nan nan nan nan nan nan nan nan nan nan nan nan nan nan nan nan nan nan nan nan nan nan nan nan nan nan nan nan nan nan nan nan nan nan nan nan nan nan nan nan nan nan nan nan nan nan nan nan nan nan nan nan nan nan